Date String (YYYY-MM-DD hh:mm:ss) UTC,Instrument flags,Ambient pressure (hPa),Sample flow (lpm),Bypass flow (lpm),Sample temperature (°C),Ambient temperature (°C),ASC tube jacket temperature (°C),LED temperature (°C),Box temperature (°C),Sample RH (%),Span deviation,Mass concentration (μg/m³),Mass concentration (μg/m³),Mass concentration (μg/m³)
DateTimeUTC,F1_M11,P_M11,Q1_M11,Q2_M11,T1_M11,T2_M11,T3_M11,T4_M11,T5_M11,U1_M11,ZSPAN_M11,X2_M11,X0_M11,X1_M11
2021-11-01 07:00:00,,0828.9,4.99,0.00,25.0,24.1,00.0,34.0,26.8,18.9,0000.0,0006.43,0009.04,0006.01
2021-11-01 07:01:00,,0828.8,5.01,0.00,25.0,24.1,00.0,34.0,26.8,19.0,0000.0,0006.41,0009.42,0006.01
2021-11-01 07:02:00,,0829.0,4.99,0.00,25.0,24.1,00.0,34.0,26.8,19.0,0000.0,0006.38,0009.88,0006.00
2021-11-01 07:03:00,,0829.1,5.00,0.00,25.0,24.1,00.0,34.0,26.8,19.0,0000.0,0006.36,0010.44,0005.98
2021-11-01 07:04:00,,0828.8,4.99,0.00,25.0,24.1,00.0,34.0,26.8,19.0,0000.0,0006.36,0010.48,0005.97
2021-11-01 07:05:00,,0828.8,5.01,0.00,24.9,24.1,00.0,34.0,26.8,19.0,0000.0,0006.39,0010.53,0005.99
2021-11-01 07:06:00,,0828.9,4.99,0.00,24.9,24.1,00.0,34.0,26.8,19.1,0000.0,0006.40,0010.55,0006.01
2021-11-01 07:07:00,,0828.9,5.01,0.00,24.9,24.1,00.0,34.0,26.8,19.1,0000.0,0006.37,0010.40,0006.01
2021-11-01 07:08:00,,0829.0,5.00,0.00,24.9,24.1,00.0,34.0,26.8,19.1,0000.0,0006.35,0010.09,0006.01
2021-11-01 07:09:00,,0828.9,5.00,0.00,24.9,24.0,00.0,34.0,26.8,19.1,0000.0,0006.35,0010.05,0006.02
2021-11-01 07:10:00,,0828.8,5.01,0.00,24.9,24.0,00.0,34.0,26.7,19.1,0000.0,0006.33,0010.03,0006.01
2021-11-01 07:11:00,,0828.4,5.00,0.00,24.9,24.0,00.0,34.0,26.7,19.1,0000.0,0006.31,0009.89,0006.01
2021-11-01 07:12:00,,0828.5,5.00,0.00,24.9,24.0,00.0,34.0,26.7,19.1,0000.0,0006.32,0009.52,0006.02
2021-11-01 07:13:00,,0828.7,4.99,0.00,24.9,24.0,00.0,34.0,26.7,19.1,0000.0,0006.34,0009.11,0006.03
2021-11-01 07:14:00,,0828.7,5.01,0.00,24.9,24.0,00.0,34.0,26.7,19.2,0000.0,0006.36,0008.40,0006.04
2021-11-01 07:15:00,,0828.7,5.00,0.00,24.9,24.0,00.0,34.0,26.7,19.2,0000.0,0006.35,0008.64,0006.04
2021-11-01 07:16:00,,0828.5,4.99,0.00,24.9,24.0,00.0,34.0,26.7,19.2,0000.0,0006.34,0008.61,0006.04
2021-11-01 07:17:00,,0828.5,5.00,0.00,24.9,24.0,00.0,34.0,26.7,19.2,0000.0,0006.33,0008.61,0006.02
2021-11-01 07:18:00,,0828.7,4.99,0.00,24.9,24.0,00.0,33.9,26.7,19.2,0000.0,0006.34,0008.65,0006.01
2021-11-01 07:19:00,,0828.9,5.01,0.00,24.8,24.0,00.0,33.9,26.6,19.2,0000.0,0006.34,0008.69,0006.00
2021-11-01 07:20:00,,0828.6,4.99,0.00,24.8,24.0,00.0,33.9,26.6,19.2,0000.0,0006.32,0008.67,0005.97
2021-11-01 07:21:00,,0828.7,5.00,0.00,24.8,24.0,00.0,33.9,26.6,19.2,0000.0,0006.30,0008.58,0005.95
2021-11-01 07:22:00,,0828.6,5.01,0.00,24.8,24.0,00.0,33.9,26.6,19.3,0000.0,0006.25,0008.50,0005.93
2021-11-01 07:23:00,,0828.5,5.00,0.00,24.8,24.0,00.0,33.9,26.6,19.2,0000.0,0006.20,0008.46,0005.87
2021-11-01 07:24:00,,0828.5,5.00,0.00,24.8,23.9,00.0,33.9,26.6,19.2,0000.0,0006.15,0008.38,0005.81
2021-11-01 07:25:00,,0828.5,5.01,0.00,24.8,23.9,00.0,33.9,26.6,19.2,0000.0,0006.09,0008.34,0005.76
2021-11-01 07:26:00,,0828.5,5.00,0.00,24.8,23.9,00.0,33.9,26.6,19.2,0000.0,0006.06,0008.13,0005.73
2021-11-01 07:27:00,,0828.5,4.99,0.00,24.8,23.9,00.0,33.9,26.6,19.2,0000.0,0006.04,0008.09,0005.70
2021-11-01 07:28:00,,0828.5,5.01,0.00,24.8,23.9,00.0,33.9,26.6,19.2,0000.0,0006.01,0008.13,0005.68
2021-11-01 07:29:00,,0828.4,4.99,0.00,24.8,23.9,00.0,33.9,26.6,19.2,0000.0,0005.97,0008.45,0005.65
2021-11-01 07:30:00,,0828.5,5.01,0.00,24.8,23.9,00.0,33.9,26.6,19.2,0000.0,0005.95,0008.68,0005.62
2021-11-01 07:31:00,,0828.5,4.99,0.00,24.8,23.9,00.0,33.9,26.6,19.2,0000.0,0005.91,0008.66,0005.60
2021-11-01 07:32:00,,0828.5,5.01,0.00,24.7,23.9,00.0,33.8,26.6,19.2,0000.0,0005.91,0008.73,0005.59
2021-11-01 07:33:00,,0828.5,5.01,0.00,24.8,23.9,00.0,33.8,26.6,19.2,0000.0,0005.94,0008.84,0005.57
2021-11-01 07:34:00,,0828.4,4.99,0.00,24.8,23.9,00.0,33.8,26.6,19.1,0000.0,0005.95,0008.87,0005.58
2021-11-01 07:35:00,,0828.4,5.00,0.00,24.8,23.9,00.0,33.8,26.6,19.1,0000.0,0005.93,0008.83,0005.59
2021-11-01 07:36:00,,0828.4,5.01,0.00,24.8,23.9,00.0,33.8,26.6,19.1,0000.0,0005.94,0009.34,0005.59
2021-11-01 07:37:00,,0828.5,5.00,0.00,24.8,23.9,00.0,33.8,26.6,19.1,0000.0,0005.96,0009.58,0005.59
2021-11-01 07:38:00,,0828.4,4.99,0.00,24.8,24.0,00.0,33.8,26.6,19.1,0000.0,0006.00,0009.70,0005.59
2021-11-01 07:39:00,,0828.5,5.00,0.00,24.8,24.0,00.0,33.8,26.6,19.2,0000.0,0005.99,0009.64,0005.59
2021-11-01 07:40:00,,0828.4,5.00,0.00,24.8,24.0,00.0,33.8,26.6,19.2,0000.0,0006.01,0009.32,0005.59
2021-11-01 07:41:00,,0828.4,5.01,0.00,24.8,24.0,00.0,33.8,26.6,19.2,0000.0,0006.01,0009.43,0005.59
2021-11-01 07:42:00,,0828.5,4.99,0.00,24.8,24.0,00.0,33.8,26.6,19.2,0000.0,0006.02,0009.77,0005.60
2021-11-01 07:43:00,,0828.5,4.99,0.00,24.8,23.9,00.0,33.8,26.6,19.2,0000.0,0006.02,0009.78,0005.60
2021-11-01 07:44:00,,0828.5,5.00,0.00,24.8,24.0,00.0,33.8,26.6,19.2,0000.0,0006.00,0009.79,0005.60
2021-11-01 07:45:00,,0828.5,5.02,0.00,24.8,23.9,00.0,33.8,26.6,19.2,0000.0,0006.04,0009.84,0005.62
2021-11-01 07:46:00,,0828.5,4.99,0.00,24.8,23.9,00.0,33.8,26.6,19.2,0000.0,0006.04,0009.79,0005.63
2021-11-01 07:47:00,,0828.5,5.01,0.00,24.8,23.9,00.0,33.8,26.6,19.2,0000.0,0006.01,0009.21,0005.63
2021-11-01 07:48:00,,0828.4,4.99,0.00,24.8,23.9,00.0,33.8,26.6,19.2,0000.0,0005.97,0008.91,0005.63
2021-11-01 07:49:00,,0828.4,5.00,0.00,24.8,23.9,00.0,33.8,26.6,19.2,0000.0,0005.88,0008.69,0005.60
2021-11-01 07:50:00,,0828.4,5.01,0.00,24.8,23.9,00.0,33.8,26.6,19.2,0000.0,0005.89,0008.84,0005.60
2021-11-01 07:51:00,,0828.4,4.99,0.00,24.8,23.9,00.0,33.8,26.6,19.2,0000.0,0005.90,0009.23,0005.59
2021-11-01 07:52:00,,0828.4,5.01,0.00,24.8,24.0,00.0,33.8,26.6,19.3,0000.0,0005.91,0009.02,0005.60
2021-11-01 07:53:00,,0828.4,5.00,0.00,24.8,23.9,00.0,33.8,26.6,19.2,0000.0,0005.94,0008.75,0005.61
2021-11-01 07:54:00,,0828.4,4.99,0.00,24.8,24.0,00.0,33.8,26.6,19.3,0000.0,0005.94,0008.60,0005.60
2021-11-01 07:55:00,,0828.5,5.00,0.00,24.8,24.0,00.0,33.8,26.6,19.3,0000.0,0005.93,0008.61,0005.60
2021-11-01 07:56:00,,0828.5,5.01,0.00,24.8,24.0,00.0,33.8,26.6,19.3,0000.0,0005.89,0008.63,0005.58
2021-11-01 07:57:00,,0828.7,4.99,0.00,24.8,24.0,00.0,33.8,26.6,19.3,0000.0,0005.86,0008.68,0005.54
2021-11-01 07:58:00,,0829.0,5.00,0.00,24.8,24.0,00.0,33.8,26.6,19.3,0000.0,0005.83,0008.70,0005.52
2021-11-01 07:59:00,,0828.9,5.01,0.00,24.8,24.0,00.0,33.8,26.6,19.3,0000.0,0005.81,0009.10,0005.48
